Location: Bluff Heights
(33.7692°N, 118.1592°W)
Time: 10:43:45
(UTC+00:00)

Tiros 1 - Pass Details

Date: 31 July 2021
Orbit: 630 x 663 km, 48.4° (Epoch: 22 September)

Event Time Altitude Azimuth Distance (km) Brightness Sun altitude
Rises 06:27:10 0° 313° (NW) 2,960 11.5 -33.6°
Reaches altitude 10° 06:30:15 10° 334° (NNW) 2,042 10.5 -33.9°
Maximum altitude 06:33:24 17° 16° (NNE) 1,596 9.6 -34.2°
Enters shadow 06:33:26 17° 17° (NNE) 1,596 9.6 -34.2°
Drops below altitude 10° 06:36:31 10° 58° (ENE) 2,025 - -34.4°
Sets 06:39:32 0° 78° (ENE) 2,926 - -34.7°
